sat.trackr.live / text

‹ back to catalog

USA 115 (MILSTAR-1 2)

NORAD 23712 · 1995-060A

PAYLOAD ACTIVE UNKNOWN

§ Identity

Operator
Country
US
Launch date
1995-11-06
Launch site
AFETR
Launch vehicle
Mass (kg)
RCS (m²)

Purposes: comms

External: N2YO · Heavens-Above · Gunter

§ Orbital elements

Epoch: 2026-05-25T03:15:33.100128Z

Period
1,434.73 min
Inclination
14.0653°
Eccentricity
0.0000877
Mean motion
1.00367170 rev/d
Perigee alt
35,756.2 km
Apogee alt
35,763.6 km
Semi-major
42,138.0 km
B*
0.0000e+0
RAAN
3.9257°
Arg perigee
88.0076°
Mean anomaly
97.6806°
Rev number
3,265

§ Raw data

USA 115 (MILSTAR-1 2)1 23712U 95060A   26145.13579977 -.00000155  00000+0  00000+0 0  99912 23712  14.0653   3.9257 0000877  88.0076  97.6806  1.00367170 32650

JSON: /api/v1/satellites/23712 · /tle

For live sub-satellite position, see the globe view (requires WebGL).

§ Visibility from observer

Set your observer location to see the next 7 days of passes ≥ 10°. The values pass through the URL so the page stays shareable.

No JS? Fill the form by hand. The geolocation button needs JavaScript.